Estación de Campanacura

Ultimos registro cada 15 minutos 65
Estación Fecha / Hora Temperatura Humedad Lluvia Velocidad Dirección Radiación Presion
65 Campanacura 07-05-2026 16:00 12,6 63,4 0 1 164 69,4 1012,4
64 Campanacura 07-05-2026 15:45 12,8 63,4 0 1,5 168 91,9 1012,5
63 Campanacura 07-05-2026 15:30 12,9 62,9 0 1,5 183 94,4 1012,5
62 Campanacura 07-05-2026 15:15 13,4 61,4 0 1,5 190 131,9 1012,5
61 Campanacura 07-05-2026 15:00 13,6 60,5 0 2 190 161,9 1012,5
60 Campanacura 07-05-2026 14:45 13,9 60,1 0 1,5 191 223,1 1012,2
59 Campanacura 07-05-2026 14:30 14,2 59,1 0 2 187 256,9 1012,1
58 Campanacura 07-05-2026 14:15 14,5 57,6 0 1 204 286,9 1011,9
57 Campanacura 07-05-2026 14:00 14,5 59,9 0 1,5 181 374,4 1011,9
56 Campanacura 07-05-2026 13:45 15,4 59,5 0 1 198 410,6 1011,9
55 Campanacura 07-05-2026 13:30 15,4 55,7 0 1,5 173 601,9 1011,2
54 Campanacura 07-05-2026 13:15 15 57,5 0 1 170 206,9 1012,1
53 Campanacura 07-05-2026 13:00 15,2 57,8 0 1,5 161 634,4 1011,2
52 Campanacura 07-05-2026 12:45 15 60,1 0 2 174 608,1 1011,4
51 Campanacura 07-05-2026 12:30 14,6 61,2 0 2 171 616,9 1011,8
50 Campanacura 07-05-2026 12:15 14,5 63,4 0 2 181 581,9 1012,4
49 Campanacura 07-05-2026 12:00 14,1 63,1 0 2,5 187 566,9 1012,6
48 Campanacura 07-05-2026 11:45 13,8 61,9 0 2,5 178 550,6 1012,9
47 Campanacura 07-05-2026 11:30 13,7 60,2 0 2,5 177 530,6 1013,1
46 Campanacura 07-05-2026 11:15 13,5 60,3 0 2,5 187 510,6 1013,3
45 Campanacura 07-05-2026 11:00 13,5 60,5 0 2 178 486,9 1013,3
44 Campanacura 07-05-2026 10:45 12,8 58,6 0 2 171 459,4 1013,3
43 Campanacura 07-05-2026 10:30 12,6 53,5 0 2 183 428,1 1013,4
42 Campanacura 07-05-2026 10:15 11,9 53,6 0 1,5 190 395,6 1013,3
41 Campanacura 07-05-2026 10:00 11,2 44,1 0 1 184 363,1 1013,4
40 Campanacura 07-05-2026 09:45 10,1 41,2 0 0,5 163 325,6 1013,3
39 Campanacura 07-05-2026 09:30 9,5 39,1 0 0 138 285,6 1013,1
38 Campanacura 07-05-2026 09:15 9,3 32,4 0 0 115 245,6 1013,2
37 Campanacura 07-05-2026 09:00 8,5 24 0 0 111 204,4 1013,1
36 Campanacura 07-05-2026 08:45 8,1 21,6 0 0 111 161,9 1013,1
35 Campanacura 07-05-2026 08:30 6,1 23,9 0 0 111 125,6 1013
34 Campanacura 07-05-2026 08:15 4,5 25,2 0 0 111 83,1 1012,7
33 Campanacura 07-05-2026 08:00 2,8 27,4 0 0 111 38,1 1012,6
32 Campanacura 07-05-2026 07:45 3,1 27,9 0 0 111 11,9 1012,5
31 Campanacura 07-05-2026 07:30 3,4 27,3 0 0 111 1,9 1012,4
30 Campanacura 07-05-2026 07:15 3,7 27,3 0 0 111 0,6 1012,3
29 Campanacura 07-05-2026 07:00 3,6 27,8 0 0 136 0,6 1012,1
28 Campanacura 07-05-2026 06:45 3,2 31,3 0 0 216 0,6 1011,8
27 Campanacura 07-05-2026 06:30 4,8 27,7 0 0 216 0,6 1011,5
26 Campanacura 07-05-2026 06:15 5 28 0 0 216 0,6 1011,5
25 Campanacura 07-05-2026 06:00 4,1 30,4 0 0 216 0,6 1011,6
24 Campanacura 07-05-2026 05:45 4,5 31,1 0 0 216 0,6 1011,6
23 Campanacura 07-05-2026 05:30 5,2 32,5 0 0 218 0,6 1011,3
22 Campanacura 07-05-2026 05:15 5,5 31 0 0 218 0,6 1011
21 Campanacura 07-05-2026 05:00 5,7 32,5 0 0 218 0,6 1010,8
20 Campanacura 07-05-2026 04:45 6,1 34,7 0 0 218 0,6 1010,9
19 Campanacura 07-05-2026 04:30 6,5 35 0 0 218 0,6 1010,6
18 Campanacura 07-05-2026 04:15 6,6 35,7 0 0 218 0,6 1010,5
17 Campanacura 07-05-2026 04:00 6,8 37,6 0 0 216 0,6 1010,5
16 Campanacura 07-05-2026 03:45 7,3 41,4 0 0 211 0,6 1010,7
15 Campanacura 07-05-2026 03:30 8,4 46,8 0 0 194 0,6 1010,5
14 Campanacura 07-05-2026 03:15 8,1 43,2 0 0 188 0,6 1010,4
13 Campanacura 07-05-2026 03:00 8,5 36 0 0 188 0,6 1010,5
12 Campanacura 07-05-2026 02:45 7,4 30,7 0 0 185 0,6 1010,7
11 Campanacura 07-05-2026 02:30 7,9 33,9 0 0 187 0,6 1010,6
10 Campanacura 07-05-2026 02:15 9 34,1 0 0 187 0,6 1010,5
9 Campanacura 07-05-2026 02:00 9 32,4 0 0 197 0,6 1010,4
8 Campanacura 07-05-2026 01:45 8,9 33 0 0 188 0,6 1010,1
7 Campanacura 07-05-2026 01:30 9,4 34,1 0 0 191 0,6 1009,9
6 Campanacura 07-05-2026 01:15 9,9 35,6 0 0 192 0,6 1009,7
5 Campanacura 07-05-2026 01:00 9,9 34,2 0 0 194 0,6 1009,9
4 Campanacura 07-05-2026 00:45 9,5 33,5 0 0 194 0,6 1009,8
3 Campanacura 07-05-2026 00:30 9,8 34,4 0 0 202 0,6 1009,5
2 Campanacura 07-05-2026 00:15 9,9 31,7 0 0 220 0,6 1009,3
1 Campanacura 07-05-2026 00:00 10 30,5 0 0 223 0,6 1009,2